Houghton, MI

8:42 PM EDT on May 22, 2017 (GMT -0400)
Houghton County Memorial

Weather History for KCMX - August, 2014

Change the Weather History Date:

Monday, August 11, 2014

  Actual Average Record
Temperature  
Mean Temperature 60 °F -  
Max Temperature 68 °F 73 °F 88 °F (1965)
Min Temperature 54 °F 54 °F 41 °F (1967)
Degree Days  
Heating Degree Days 5    
Growing Degree Days 10 (Base 50)    
Moisture  
Dew Point 57 °F    
Average Humidity 87    
Maximum Humidity 94    
Minimum Humidity 70    
Precipitation  
Precipitation 1.06 in - - ()
Sea Level Pressure  
Sea Level Pressure 29.99 in    
Wind  
Wind Speed 7 mph (North)    
Max Wind Speed 15 mph    
Max Gust Speed 26 mph    
Visibility 6 miles    
Events Fog , Rain    
Averages and records for this station are not official NWS values.
T = Trace of Precipitation, MM = Missing Value Source: NWS Daily Summary

Daily Weather History Graph

Daily Weather History Graph

Search for Another Location

Airport or City:

Trip Planner

Search our weather history database for the weather conditions in past years. The results will help you decide how hot, cold, wet, or windy it might be!

Date:

Astronomy

Aug. 11, 2014 Rise Set
Actual Time 6:45 AM EDT 9:11 PM EDT
Civil Twilight 6:11 AM EDT 9:45 PM EDT
Nautical Twilight 5:28 AM EDT 10:28 PM EDT
Astronomical Twilight 4:39 AM EDT 11:16 PM EDT
Moon 9:29 PM EDT (8/11) 7:58 AM EDT (8/11)
Length of Visible Light 15h 34m
Length of Day
14h 26m
Full, 99% of the Moon is Illuminated
Aug 11
Full
Aug 17
Last Quarter
Aug 25
New
Sep 2
First Quarter
Sep 8
Full

Hourly Weather History & Observations

Time (EDT) Temp. Dew Point Humidity Pressure Visibility Wind Dir Wind Speed Gust Speed Precip Events Conditions
12:53 AM 64.9 °F 55.0 °F 70% 29.99 in 10.0 mi NNW 5.8 mph - N/A   Mostly Cloudy
1:53 AM 64.0 °F 55.0 °F 73% 29.99 in 10.0 mi NW 8.1 mph - N/A   Overcast
2:53 AM 66.0 °F 55.9 °F 70% 29.96 in 10.0 mi North 6.9 mph - N/A   Overcast
3:53 AM 66.9 °F 57.0 °F 70% 29.94 in 10.0 mi North 10.4 mph - N/A   Overcast
4:53 AM 66.9 °F 57.9 °F 73% 29.93 in 10.0 mi NNE 5.8 mph - N/A   Overcast
5:53 AM 66.0 °F 59.0 °F 78% 29.94 in 10.0 mi Calm Calm - 0.00 in   Overcast
6:53 AM 64.0 °F 59.0 °F 84% 29.94 in 10.0 mi Calm Calm - N/A   Overcast
7:53 AM 64.0 °F 59.0 °F 84% 29.95 in 8.0 mi East 3.5 mph - N/A   Overcast
8:53 AM 64.0 °F 60.1 °F 87% 29.96 in 6.0 mi NW 3.5 mph - 0.00 in Rain Light Rain
9:53 AM 63.0 °F 60.1 °F 90% 29.97 in 5.0 mi NNW 4.6 mph - 0.03 in Rain Light Rain
10:14 AM 63.0 °F 59.0 °F 87% 29.98 in 1.8 mi NNW 6.9 mph - 0.05 in Rain Rain
10:53 AM 62.1 °F 59.0 °F 90% 29.98 in 1.8 mi NNE 4.6 mph - 0.24 in Rain Rain
11:39 AM 63.0 °F 60.1 °F 90% 29.98 in 2.0 mi NNE 4.6 mph - 0.22 in Rain Rain
11:51 AM 62.6 °F 60.8 °F 94% 29.99 in 3.0 mi Calm Calm - 0.24 in Rain Light Rain
11:53 AM 63.0 °F 61.0 °F 93% 29.99 in 3.0 mi NNW 3.5 mph - 0.24 in Rain Light Rain
12:13 PM 64.0 °F 61.0 °F 90% 29.98 in 3.0 mi North 3.5 mph - 0.03 in Rain Rain
12:53 PM 64.0 °F 60.1 °F 87% 29.98 in 6.0 mi NNW 6.9 mph - 0.06 in Rain Light Rain
1:53 PM 63.0 °F 60.1 °F 90% 29.97 in 5.0 mi North 11.5 mph - 0.02 in Rain Light Rain
2:14 PM 61.0 °F 59.0 °F 93% 29.97 in 1.5 mi North 9.2 mph - 0.00 in Rain Light Rain
2:29 PM 60.8 °F 59.0 °F 94% 29.97 in 0.5 mi North 5.8 mph - N/A Fog , Rain Light Rain
2:39 PM 61.0 °F 59.0 °F 93% 29.98 in 2.0 mi NNE 6.9 mph - 0.00 in Rain Light Rain
2:46 PM 62.1 °F 59.0 °F 90% 29.98 in 4.0 mi Variable 4.6 mph - 0.01 in Rain Light Rain
2:53 PM 62.1 °F 60.1 °F 93% 29.98 in 5.0 mi Variable 4.6 mph - 0.01 in Rain Light Rain
3:24 PM 62.1 °F 59.0 °F 90% 29.99 in 8.0 mi NNE 5.8 mph - 0.02 in Rain Light Rain
3:53 PM 61.0 °F 57.9 °F 90% 29.98 in 4.0 mi North 9.2 mph - 0.06 in Rain Rain
4:53 PM 61.0 °F 57.9 °F 90% 29.98 in 5.0 mi NNE 9.2 mph - 0.09 in Rain Rain
5:53 PM 59.0 °F 55.0 °F 87% 30.01 in 6.0 mi NNE 13.8 mph - 0.06 in Rain Light Rain
6:18 PM 57.9 °F 55.0 °F 90% 30.01 in 2.5 mi North 13.8 mph 20.7 mph 0.07 in Rain Rain
6:26 PM 57.9 °F 55.0 °F 90% 30.01 in 3.0 mi NNE 12.7 mph 23.0 mph 0.09 in Rain Rain
6:45 PM 57.9 °F 55.0 °F 90% 30.02 in 2.5 mi NNE 15.0 mph 24.2 mph 0.14 in Rain Rain
6:51 PM 57.2 °F 55.4 °F 94% 30.02 in 3.0 mi NNE 11.5 mph - 0.16 in Rain Rain
6:53 PM 57.9 °F 55.0 °F 90% 30.02 in 3.0 mi North 12.7 mph - 0.16 in Rain Rain
7:24 PM 57.0 °F 54.0 °F 89% 30.01 in 4.0 mi NNE 12.7 mph - 0.06 in Rain Light Rain
7:53 PM 57.0 °F 54.0 °F 89% 30.02 in 7.0 mi NNE 12.7 mph 24.2 mph 0.08 in Rain Light Rain
8:53 PM 55.9 °F 53.1 °F 90% 30.01 in 10.0 mi NNE 15.0 mph - 0.01 in   Overcast
9:25 PM 55.9 °F 52.0 °F 87% 30.01 in 10.0 mi NNE 13.8 mph 26.5 mph N/A   Overcast
9:53 PM 55.9 °F 52.0 °F 87% 30.02 in 10.0 mi NNE 12.7 mph 20.7 mph N/A   Overcast
10:44 PM 55.9 °F 51.1 °F 84% 30.01 in 10.0 mi NNE 12.7 mph 21.9 mph N/A   Overcast
10:53 PM 55.9 °F 52.0 °F 87% 30.02 in 10.0 mi NNE 12.7 mph - N/A   Overcast
11:08 PM 55.0 °F 51.1 °F 86% 30.01 in 10.0 mi North 11.5 mph - N/A   Overcast
11:39 PM 54.0 °F 51.1 °F 90% 30.01 in 10.0 mi NNE 13.8 mph - N/A   Overcast
11:53 PM 54.0 °F 51.1 °F 90% 30.02 in 10.0 mi NNE 12.7 mph 19.6 mph N/A   Overcast